| time (UTC) | temp F | wind direction | speed MPH | gust MPH | rain 1hr in | rain 24hr in | rain mn in | humidity % | barometer mb |
| 20260503235821 | 63 | 233 | 1.0 | 2.0 | 0.00 | 0.25 | 0.25 | 95 | 997.4 |
| 20260503234622 | 63 | 297 | 2.0 | 5.0 | 0.00 | 0.25 | 0.25 | 97 | 997.1 |
| 20260503233421 | 62 | 284 | 1.0 | 2.0 | 0.00 | 0.25 | 0.25 | 97 | 997.4 |
| 20260503232221 | 63 | 22 | 1.0 | 2.0 | 0.00 | 0.25 | 0.25 | 96 | 997.2 |
| 20260503231022 | 63 | 133 | 3.0 | 5.0 | 0.00 | 0.25 | 0.25 | 96 | 997.5 |
| 20260503224624 | 61 | 114 | 0.0 | 0.0 | 0.00 | 0.25 | 0.25 | 99 | 997.6 |
| 20260503223421 | 60 | 205 | 2.0 | 3.0 | 0.00 | 0.25 | 0.25 | 99 | 997.7 |
| 20260503222222 | 59 | 209 | 2.0 | 5.0 | 0.00 | 0.25 | 0.25 | 99 | 997.5 |
| 20260503221022 | 58 | 315 | 2.0 | 3.0 | 0.00 | 0.25 | 0.25 | 99 | 996.9 |
| 20260503215822 | 58 | 308 | 1.0 | 2.0 | 0.00 | 0.25 | 0.25 | 99 | 997.5 |
| 20260503214621 | 58 | 199 | 0.0 | 0.0 | 0.00 | 0.25 | 0.25 | 99 | 997.4 |
| 20260503213423 | 58 | 291 | 1.0 | 2.0 | 0.00 | 0.25 | 0.25 | 99 | 997.2 |
| 20260503212221 | 58 | 166 | 0.0 | 0.0 | 0.00 | 0.25 | 0.25 | 99 | 997.1 |
| 20260503211022 | 57 | 54 | 0.0 | 1.0 | 0.02 | 0.25 | 0.25 | 99 | 997.0 |
| 20260503205822 | 57 | 321 | 0.0 | 0.0 | 0.02 | 0.25 | 0.25 | 99 | 997.2 |
| 20260503204622 | 57 | 311 | 0.0 | 0.0 | 0.18 | 0.25 | 0.25 | 99 | 997.5 |
| 20260503203421 | 57 | 289 | 3.0 | 3.0 | 0.18 | 0.25 | 0.25 | 99 | 997.7 |
| 20260503202222 | 57 | 251 | 2.0 | 3.0 | 0.18 | 0.25 | 0.25 | 99 | 997.8 |
| 20260503201022 | 57 | 264 | 1.0 | 1.0 | 0.16 | 0.23 | 0.23 | 99 | 997.4 |
| 20260503195821 | 57 | 264 | 1.0 | 1.0 | 0.16 | 0.23 | 0.23 | 99 | 997.3 |
| 20260503194620 | 58 | 292 | 1.0 | 1.0 | 0.00 | 0.07 | 0.07 | 99 | 997.8 |
| 20260503193422 | 58 | 292 | 1.0 | 1.0 | 0.06 | 0.07 | 0.07 | 99 | 997.6 |
| 20260503192223 | 58 | 292 | 1.0 | 1.0 | 0.06 | 0.07 | 0.07 | 99 | 998.1 |
| 20260503191021 | 58 | 292 | 1.0 | 1.0 | 0.06 | 0.07 | 0.07 | 99 | 997.6 |
| 20260503185821 | 58 | 292 | 1.0 | 1.0 | 0.07 | 0.07 | 0.07 | 99 | 997.7 |
| 20260503184620 | 58 | 292 | 1.0 | 1.0 | 0.07 | 0.07 | 0.07 | 99 | 998.4 |
| 20260503183420 | 58 | 126 | 1.0 | 2.0 | 0.01 | 0.01 | 0.01 | 99 | 999.0 |
| 20260503182221 | 58 | 126 | 1.0 | 2.0 | 0.01 | 0.01 | 0.01 | 99 | 999.4 |
| 20260503181020 | 58 | 345 | 0.0 | 1.0 | 0.01 | 0.01 | 0.01 | 99 | 999.5 |
| 20260503175820 | 58 | 240 | 1.0 | 2.0 | 0.00 | 0.00 | 0.00 | 99 | 998.8 |
| 20260503174620 | 58 | 323 | 1.0 | 2.0 | 0.00 | 0.00 | 0.00 | 97 | 999.0 |
| 20260503173419 | 58 | 292 | 0.0 | 1.0 | 0.00 | 0.00 | 0.00 | 96 | 999.5 |
| 20260503172220 | 59 | 188 | 0.0 | 0.0 | 0.00 | 0.00 | 0.00 | 94 | 999.6 |
| 20260503171020 | 59 | 49 | 0.0 | 0.0 | 0.00 | 0.00 | 0.00 | 92 | 999.7 |
| 20260503131020 | 63 | 30 | 1.0 | 2.0 | 0.00 | 0.00 | 0.00 | 77 | 1002.6 |
| 20260503081020 | 76 | 277 | 5.0 | 10.0 | 0.00 | 0.00 | 0.00 | 31 | 1003.8 |